SL-3 R/B, 5732

Orbit data source: Space-Track

SL-3 R/B, 5732 is space debris in LEO originally from a launch on Wed, 29 Dec 1971 UTC launched from the Plesetsk Missile And Space Complex (PKMTR). Debris objects in space refer to the collection of defunct objects orbiting the Earth. Examples of debris include non-operational satellites, rocket bodies, and fragments generated from explosions, collisions, or faulty payload assembly.

Loading next visibility...
Identifier
5732, 1971-120B
Orbit
LEO
Country
Flag of CISCIS
Related business
Manufacturer
Progress
Mission
Spacecraft
Bus & Motor
BLOK-E, Unknown motor
Mass
1,440 kg wet, 1,440 kg dry
Launch date (UTC)
1971-12-29 (54 years ago)
Launch vehicle
Unknown
Launch site
Plesetsk Missile And Space Complex (PKMTR)
Object type
Payload
Rocket body
Debris
Shape & HBR
Unknown
Radar Cross Section
Large (>1 m²)

Expand to show TLE details & history
Last TLE update: 2 days ago

TLE from 2 days ago
0 SL-3 R/B
1  5732U 71120B   26171.45765821 -.00000002  00000-0 -86559-5 0  9995
2  5732  81.2505 184.1071 0052215 148.7978 211.6309 14.06433380793161
Epoch: 2026-06-20T10:59Z
TLE epoch observation values (Epoch: 2026-06-20T10:59:01.669Z)
Latitude
-0.00004°
Longitude
110.67814°
Altitude
906.789 km
Speed
7.382 km/s
True Right ascension
12h 16m 25s
True Declination
0° 00' 00"
Sunlit
Object was in daylight at epoch
Visualization orbit readout
Latitude
Unknown
Longitude
Unknown
Altitude
Unknown
Speed
Unknown
Apparent Right ascension
Unknown
Apparent Declination
Unknown
Sunlit
N/A
Visualization observer readout
Local Sidereal Time
23:08:36
Azimuth
Unknown
Elevation
Unknown
Doppler factor
Unknown
Orbital elements
Apogee altitude
906.621 km
Perigee altitude
830.941 km
Semi-major axis
7,246.918 km
Eccentricity
0.00522
Inclination
81.2505°
RAAN
184.1071°
Arg. of periapsis
148.7978°
True anomaly
211.31884°
Mean anomaly
211.6309°
Eccentric anomaly
211.4747°
Mean motion
3.51814 °/min
Orbital period
102.33 mins
BSTAR
-0.0000086559
Loading maneuver chart data...
Computing Atmospheric mass density...

Documentation

Showing up to 5 results
|